Location: Maiden
(35.5760°N, 81.2120°W)
Time: 02:30:00
(UTC-04:00)

A-11 Canister half - Pass Details

Date: 11 August 2020
Orbit: 1527 x 1682 km, 47.3° (Epoch: 25 September)

Event Time Altitude Azimuth Distance (km) Brightness Sun altitude
Rises 16:30:03 0° 292° (WNW) 4,936 12.2 44.9°
Reaches altitude 10° 16:33:29 10° 299° (WNW) 3,946 11.8 44.2°
Maximum altitude 16:43:05 45° 10° (N) 2,166 10.1 42.3°
Drops below altitude 10° 16:52:30 10° 80° (E) 3,873 10.7 40.4°
Sets 16:55:50 0° 87° (E) 4,838 11.1 39.7°
